TimeEDT,TemperatureF,Dew PointF,Humidity,Sea Level PressureIn,VisibilityMPH,Wind Direction,Wind SpeedMPH,Gust SpeedMPH,PrecipitationIn,Events,Conditions,WindDirDegrees,DateUTC
12:53 AM,48.0,39.9,74,30.13,10.0,NE,5.8,-,N/A,,Clear,40,2014-03-24 04:53:00
1:53 AM,46.9,39.0,74,30.14,10.0,NE,5.8,-,N/A,,Clear,40,2014-03-24 05:53:00
2:53 AM,44.1,39.0,82,30.14,9.0,NE,4.6,-,N/A,,Clear,40,2014-03-24 06:53:00
3:53 AM,42.1,37.9,85,30.16,8.0,NNE,4.6,-,N/A,,Clear,20,2014-03-24 07:53:00
4:53 AM,41.0,37.9,89,30.17,6.0,NNE,4.6,-,N/A,,Clear,30,2014-03-24 08:53:00
5:53 AM,41.0,37.9,89,30.19,5.0,NE,6.9,-,N/A,,Clear,50,2014-03-24 09:53:00
6:21 AM,41.0,37.0,86,30.20,5.0,NE,6.9,-,N/A,,Mostly Cloudy,50,2014-03-24 10:21:00
6:41 AM,41.0,37.0,86,30.20,6.0,NE,6.9,-,N/A,,Scattered Clouds,50,2014-03-24 10:41:00
6:53 AM,41.0,37.0,86,30.21,6.0,ENE,5.8,-,N/A,,Partly Cloudy,60,2014-03-24 10:53:00
7:53 AM,39.9,36.0,86,30.23,5.0,NE,8.1,-,N/A,,Clear,50,2014-03-24 11:53:00
8:53 AM,44.1,35.1,71,30.25,9.0,ENE,8.1,-,N/A,,Clear,70,2014-03-24 12:53:00
9:53 AM,46.9,30.0,52,30.25,10.0,NE,16.1,24.2,N/A,,Clear,50,2014-03-24 13:53:00
10:53 AM,48.0,28.0,46,30.25,10.0,NE,12.7,21.9,N/A,,Clear,50,2014-03-24 14:53:00
11:53 AM,50.0,25.0,38,30.25,10.0,NE,11.5,-,N/A,,Clear,40,2014-03-24 15:53:00
12:53 PM,52.0,24.1,34,30.24,10.0,ESE,8.1,-,N/A,,Clear,110,2014-03-24 16:53:00
1:53 PM,52.0,23.0,32,30.20,10.0,ESE,5.8,16.1,N/A,,Clear,110,2014-03-24 17:53:00
2:53 PM,55.9,21.9,27,30.16,10.0,North,-9999.0,-,N/A,,Clear,0,2014-03-24 18:53:00
3:53 PM,55.9,23.0,28,30.13,10.0,ESE,5.8,-,N/A,,Clear,110,2014-03-24 19:53:00
4:53 PM,57.0,21.9,26,30.11,10.0,Variable,4.6,-,N/A,,Clear,0,2014-03-24 20:53:00
5:53 PM,55.9,24.1,29,30.08,10.0,Calm,Calm,-,N/A,,Clear,0,2014-03-24 21:53:00
6:53 PM,55.0,24.1,30,30.08,10.0,East,3.5,-,N/A,,Clear,90,2014-03-24 22:53:00
7:53 PM,52.0,27.0,38,30.08,10.0,East,4.6,-,N/A,,Clear,80,2014-03-24 23:53:00
8:53 PM,48.9,28.9,46,30.07,10.0,Calm,Calm,-,N/A,,Clear,0,2014-03-25 00:53:00
9:53 PM,48.0,33.1,56,30.09,10.0,SE,6.9,-,N/A,,Clear,140,2014-03-25 01:53:00
10:53 PM,46.9,30.0,52,30.09,10.0,SE,6.9,-,N/A,,Clear,130,2014-03-25 02:53:00
11:53 PM,46.0,30.9,56,30.08,10.0,Calm,Calm,-,N/A,,Clear,0,2014-03-25 03:53:00